Three Rivers, MI

1:14 PM EDT on September 15, 2019 (GMT -0400)
Three Rivers Municipal-Haines

Weather History for KHAI - August, 2019

Change the Weather History Date:

Thursday, August 22, 2019

  Actual Average Record
Temperature  
Mean Temperature 69 °F -  
Max Temperature 76 °F 81 °F 94 °F (1955)
Min Temperature 62 °F 57 °F 43 °F (1956)
Cooling Degree Days 4    
Growing Degree Days 19 (Base 50)    
Moisture  
Dew Point 57 °F    
Average Humidity 64    
Maximum Humidity 82    
Minimum Humidity 45    
Precipitation  
Precipitation 0.00 in - - ()
Sea Level Pressure  
Sea Level Pressure 30.02 in    
Wind  
Wind Speed 3 mph (NE)    
Max Wind Speed 10 mph    
Max Gust Speed 16 mph    
Visibility 10 miles    
Events      
Averages and records for this station are not official NWS values.
T = Trace of Precipitation, MM = Missing Value Source: NWS Daily Summary

Daily Weather History Graph

Daily Weather History Graph

Search for Another Location

Airport or City:

Astronomy

Aug. 22, 2019 Rise Set
Actual Time 6:57 AM EDT 8:32 PM EDT
Civil Twilight 6:27 AM EDT 9:01 PM EDT
Nautical Twilight 5:52 AM EDT 9:37 PM EDT
Astronomical Twilight 5:14 AM EDT 10:15 PM EDT
Moon No Moon Rise 1:38 PM EDT (8/22)
Length of Visible Light 14h 33m
Length of Day
13h 35m
Waning Gibbous, 60% of the Moon is Illuminated
Aug 22
Waning Gibbous
Aug 23
Last Quarter
Aug 30
New
Sep 5
First Quarter
Sep 14
Full

Hourly Weather History & Observations

Time (EDT) Temp. Dew Point Humidity Pressure Visibility Wind Dir Wind Speed Gust Speed Precip Events Conditions
12:15 AM 72.5 °F 66.7 °F 82% 29.97 in 10.0 mi NNW 3.5 mph - N/A   Mostly Cloudy
12:16 AM 72.5 °F 66.7 °F 82% 29.97 in 10.0 mi NNW 4.6 mph - N/A   Mostly Cloudy
12:35 AM 72.0 °F 65.7 °F 80% 29.97 in 10.0 mi North 3.5 mph - N/A   Mostly Cloudy
12:36 AM 72.0 °F 65.7 °F 80% 29.97 in 10.0 mi Calm Calm - N/A   Mostly Cloudy
12:59 AM 71.2 °F 65.3 °F 81% 29.97 in 10.0 mi North 3.5 mph - N/A   Scattered Clouds
1:17 AM 70.7 °F 64.6 °F 81% 29.97 in 10.0 mi Calm Calm - N/A   Clear
1:35 AM 70.7 °F 63.5 °F 78% 29.98 in 10.0 mi Calm Calm - N/A   Scattered Clouds
1:55 AM 70.3 °F 61.3 °F 73% 29.97 in 7.0 mi Calm Calm - N/A   Mostly Cloudy
1:56 AM 70.3 °F 61.3 °F 73% 29.97 in 10.0 mi Calm Calm - N/A   Mostly Cloudy
2:15 AM 70.0 °F 60.4 °F 72% 29.97 in 10.0 mi Calm Calm - N/A   Scattered Clouds
2:20 AM 69.8 °F 60.1 °F 71% 29.97 in 10.0 mi Calm Calm - N/A   Scattered Clouds
2:38 AM 69.8 °F 59.0 °F 68% 29.97 in 10.0 mi Calm Calm - N/A   Clear
2:56 AM 68.2 °F 61.2 °F 78% 29.98 in 10.0 mi Calm Calm - N/A   Clear
3:15 AM 69.6 °F 61.2 °F 74% 29.99 in 10.0 mi Calm Calm - N/A   Mostly Cloudy
3:35 AM 68.5 °F 60.8 °F 76% 29.98 in 10.0 mi Calm Calm - N/A   Mostly Cloudy
3:36 AM 68.5 °F 60.6 °F 76% 29.98 in 10.0 mi Calm Calm - N/A   Mostly Cloudy
3:58 AM 68.9 °F 59.7 °F 72% 29.97 in 10.0 mi Calm Calm - N/A   Clear
4:17 AM 68.4 °F 59.9 °F 74% 29.97 in 10.0 mi Calm Calm - N/A   Clear
4:35 AM 68.0 °F 58.8 °F 72% 29.97 in 10.0 mi Calm Calm - N/A   Scattered Clouds
4:55 AM 67.8 °F 59.0 °F 73% 29.96 in 10.0 mi Calm Calm - N/A   Scattered Clouds
4:56 AM 67.6 °F 59.0 °F 74% 29.96 in 10.0 mi Calm Calm - N/A   Scattered Clouds
5:15 AM 67.5 °F 58.8 °F 74% 29.97 in 10.0 mi Calm Calm - N/A   Scattered Clouds
5:38 AM 67.3 °F 58.1 °F 72% 29.97 in 10.0 mi Calm Calm - N/A   Scattered Clouds
5:56 AM 66.6 °F 58.1 °F 74% 29.97 in 10.0 mi East 4.6 mph - N/A   Scattered Clouds
6:15 AM 66.2 °F 58.1 °F 75% 29.97 in 10.0 mi ENE 3.5 mph - N/A   Clear
6:16 AM 66.2 °F 58.1 °F 75% 29.98 in 10.0 mi NE 3.5 mph - N/A   Clear
6:35 AM 66.2 °F 58.3 °F 76% 29.99 in 10.0 mi Calm Calm - N/A   Clear
6:59 AM 65.8 °F 58.5 °F 77% 29.99 in 10.0 mi Calm Calm - N/A   Scattered Clouds
7:17 AM 65.7 °F 58.3 °F 77% 30.00 in 10.0 mi Calm Calm - N/A   Mostly Cloudy
7:35 AM 65.5 °F 58.5 °F 78% 30.01 in 10.0 mi Calm Calm - N/A   Mostly Cloudy
7:36 AM 65.5 °F 58.5 °F 78% 30.01 in 10.0 mi Calm Calm - N/A   Mostly Cloudy
7:55 AM 65.7 °F 57.7 °F 76% 30.01 in 10.0 mi NE 5.8 mph - N/A   Scattered Clouds
8:15 AM 65.7 °F 57.7 °F 76% 30.02 in 10.0 mi NE 4.6 mph - N/A   Scattered Clouds
8:38 AM 65.7 °F 57.6 °F 75% 30.01 in 10.0 mi NE 4.6 mph - N/A   Scattered Clouds
8:56 AM 66.2 °F 57.4 °F 73% 30.02 in 10.0 mi ENE 4.6 mph - N/A   Clear
9:15 AM 66.4 °F 57.2 °F 72% 30.02 in 10.0 mi NE 6.9 mph - N/A   Clear
9:35 AM 67.3 °F 57.4 °F 70% 30.02 in 10.0 mi ENE 6.9 mph - N/A   Clear
9:59 AM 68.7 °F 57.4 °F 67% 30.02 in 10.0 mi East 9.2 mph - N/A   Clear
10:17 AM 69.1 °F 55.4 °F 62% 30.03 in 10.0 mi ENE 10.4 mph 16.1 mph N/A   Clear
10:35 AM 69.6 °F 55.9 °F 62% 30.03 in 10.0 mi ENE 8.1 mph - N/A   Clear
10:56 AM 70.9 °F 56.7 °F 61% 30.03 in 10.0 mi East 9.2 mph - N/A   Clear
11:15 AM 71.2 °F 56.7 °F 60% 30.03 in 10.0 mi East 8.1 mph - N/A   Clear
11:20 AM 71.1 °F 55.8 °F 58% 30.03 in 10.0 mi ENE 5.8 mph - N/A   Clear
11:38 AM 71.6 °F 57.0 °F 60% 30.03 in 10.0 mi ENE 5.8 mph - N/A   Clear
11:56 AM 72.1 °F 57.2 °F 59% 30.03 in 10.0 mi NE 5.8 mph - N/A   Clear
12:15 PM 72.5 °F 57.4 °F 59% 30.03 in 10.0 mi East 8.1 mph - N/A   Clear
12:35 PM 73.2 °F 57.4 °F 57% 30.03 in 10.0 mi NE 6.9 mph - N/A   Clear
12:36 PM 73.2 °F 57.6 °F 58% 30.03 in 10.0 mi NE 5.8 mph - N/A   Clear
12:59 PM 73.8 °F 56.8 °F 55% 30.03 in 10.0 mi East 5.8 mph - N/A   Clear
1:17 PM 74.1 °F 56.8 °F 55% 30.03 in 10.0 mi North 5.8 mph - N/A   Clear
1:35 PM 75.2 °F 57.2 °F 53% 30.03 in 10.0 mi ENE 4.6 mph - N/A   Clear
1:36 PM 75.2 °F 57.4 °F 54% 30.03 in 10.0 mi East 6.9 mph - N/A   Clear
1:55 PM 75.0 °F 54.5 °F 49% 30.03 in 10.0 mi ENE 4.6 mph - N/A   Clear
1:56 PM 75.0 °F 54.7 °F 49% 30.03 in 10.0 mi ENE 4.6 mph - N/A   Clear
2:15 PM 75.6 °F 56.1 °F 51% 30.03 in 10.0 mi East 4.6 mph - N/A   Scattered Clouds
2:20 PM 75.6 °F 55.9 °F 50% 30.03 in 10.0 mi NE 4.6 mph - N/A   Scattered Clouds
2:38 PM 75.4 °F 56.8 °F 52% 30.04 in 10.0 mi NE 4.6 mph - N/A   Mostly Cloudy
2:56 PM 75.4 °F 55.8 °F 50% 30.04 in 10.0 mi Calm Calm - N/A   Mostly Cloudy
3:15 PM 75.0 °F 55.8 °F 51% 30.03 in 10.0 mi North 3.5 mph - N/A   Scattered Clouds
3:16 PM 75.2 °F 55.4 °F 50% 30.03 in 10.0 mi NNE 3.5 mph - N/A   Scattered Clouds
3:35 PM 73.9 °F 55.2 °F 52% 30.03 in 10.0 mi NNE 3.5 mph - N/A   Scattered Clouds
3:36 PM 73.9 °F 54.9 °F 51% 30.03 in 10.0 mi NNE 3.5 mph - N/A   Scattered Clouds
3:59 PM 75.6 °F 54.0 °F 47% 30.02 in 10.0 mi Calm Calm - N/A   Clear
4:17 PM 76.6 °F 55.2 °F 47% 30.02 in 10.0 mi NNE 4.6 mph - N/A   Clear
4:35 PM 76.1 °F 53.8 °F 46% 30.02 in 10.0 mi North 3.5 mph - N/A   Scattered Clouds
4:36 PM 76.1 °F 53.4 °F 45% 30.02 in 10.0 mi North 3.5 mph - N/A   Scattered Clouds
4:55 PM 75.2 °F 55.0 °F 49% 30.02 in 10.0 mi North 3.5 mph - N/A   Mostly Cloudy
5:15 PM 75.7 °F 56.1 °F 50% 30.01 in 10.0 mi NNE 4.6 mph - N/A   Scattered Clouds
5:38 PM 75.6 °F 55.2 °F 49% 30.02 in 10.0 mi North 6.9 mph - N/A   Scattered Clouds
5:56 PM 74.8 °F 54.5 °F 49% 30.02 in 10.0 mi North 6.9 mph - N/A   Scattered Clouds
6:15 PM 74.3 °F 53.6 °F 48% 30.02 in 10.0 mi North 5.8 mph - N/A   Clear
6:35 PM 74.1 °F 53.1 °F 48% 30.02 in 10.0 mi NE 5.8 mph - N/A   Clear
6:36 PM 74.1 °F 52.9 °F 47% 30.02 in 10.0 mi NE 5.8 mph - N/A   Clear
6:59 PM 73.6 °F 52.2 °F 47% 30.02 in 10.0 mi Calm Calm - N/A   Clear
7:17 PM 72.9 °F 54.3 °F 52% 30.03 in 10.0 mi Calm Calm - N/A   Clear
7:35 PM 72.3 °F 53.4 °F 51% 30.03 in 10.0 mi Calm Calm - N/A   Scattered Clouds
7:55 PM 70.5 °F 54.7 °F 57% 30.03 in 10.0 mi Calm Calm - N/A   Scattered Clouds
7:56 PM 70.3 °F 54.7 °F 58% 30.03 in 10.0 mi Calm Calm - N/A   Scattered Clouds
8:15 PM 69.4 °F 54.7 °F 59% 30.03 in 10.0 mi North 3.5 mph - N/A   Clear
8:38 PM 68.5 °F 55.6 °F 63% 30.04 in 10.0 mi NNW 3.5 mph - N/A   Clear
8:56 PM 66.7 °F 55.2 °F 66% 30.04 in 10.0 mi East 3.5 mph - N/A   Clear
9:15 PM 66.6 °F 53.4 °F 63% 30.05 in 10.0 mi Calm Calm - N/A   Clear
9:16 PM 66.6 °F 53.2 °F 62% 30.05 in 10.0 mi Calm Calm - N/A   Clear
9:35 PM 66.2 °F 52.3 °F 61% 30.06 in 10.0 mi Calm Calm - N/A   Clear
9:36 PM 66.2 °F 52.5 °F 61% 30.06 in 10.0 mi Calm Calm - N/A   Clear
9:59 PM 65.3 °F 52.3 °F 63% 30.06 in 10.0 mi Calm Calm - N/A   Clear
10:17 PM 64.9 °F 52.5 °F 64% 30.07 in 10.0 mi Calm Calm - N/A   Clear
10:35 PM 64.0 °F 52.3 °F 66% 30.07 in 10.0 mi Calm Calm - N/A   Clear
10:55 PM 63.7 °F 52.2 °F 66% 30.07 in 10.0 mi Calm Calm - N/A   Clear
10:56 PM 63.7 °F 52.2 °F 66% 30.07 in 10.0 mi Calm Calm - N/A   Clear
11:15 PM 63.0 °F 52.2 °F 68% 30.08 in 10.0 mi Calm Calm - N/A   Clear
11:38 PM 62.6 °F 51.8 °F 68% 30.09 in 10.0 mi Calm Calm - N/A   Clear
11:56 PM 62.6 °F 51.3 °F 66% 30.09 in 10.0 mi Calm Calm - N/A   Clear